Regional Weather Roundup
Issued by NWS Green Bay, WI

Home | Current Version | Previous Version | Graphics & Text | Print | Product List | Glossary Off
Versions: 1 2 3 4 5 6 7 8 9 10 11 12 13 14 15 16 17 18 19 20 21 22 23 24 25 26 27 28 29 30 31 32 33 34 35 36 37 38 39 40 41 42 43 44 45 46 47 48 49 50

000
ASUS43 KGRB 300711
RWRGRB

NORTH-CENTRAL AND NORTHEAST WISCONSIN REGIONAL WEATHER ROUNDUP
NATIONAL WEATHER SERVICE GREEN BAY WI
200 AM CDT SUN AUG 30 2015

WIZ005-009-010>012-018-019-300800-
NORTH CENTRAL WISCONSIN

CITY           SKY/WX    TMP DP  RH WIND       PRES   REMARKS
IRONWOOD       PTCLDY    63  61  94 SW8       29.97F
MANITOWISH WTR CLOUDY    59  59 100 SW6       30.04S FOG
ARBOR VITAE    CLOUDY    60  58  95 SW6       30.04F FOG
EAGLE RIVER    CLOUDY    60  60 100 SW7       30.04F FOG
LAND O LAKES   CLOUDY    61  61  99 SW5       30.05F FOG
RHINELANDER    MOCLDY    59  58  96 SW7       30.06F FOG
PHILLIPS       CLOUDY    58  58 100 CALM      30.04F FOG
ANTIGO         FOG       51  51 100 CALM      30.07S VSB 1/2
TOMAHAWK       FOG       54  53  97 CALM      30.06F VSB 3/4
MERRILL        FOG       50  50 100 CALM      30.07S VSB<1/4
$$

WIZ013-073-300800-
NORTHEAST WISCONSIN

CITY           SKY/WX    TMP DP  RH WIND       PRES   REMARKS
IRON MOUNTAIN  CLEAR     58  57  97 S3        30.03S
MARINETTE      PTCLDY    59  57  94 CALM      30.03F
OCONTO         CLOUDY    54  54 100 CALM      30.04S VSB 1/4
$$

WIZ017-030-035>037-045-300800-
CENTRAL WISCONSIN

CITY           SKY/WX    TMP DP  RH WIND       PRES   REMARKS
MEDFORD        FOG       53  53 100 CALM      30.06S VSB 1/4
WAUSAU         FOG       54  54 100 E3        30.05S VSB 1/2
MOSINEE        FOG       52  52 100 CALM      30.07S VSB 1/4
MARSHFIELD     FOG       55  52  89 CALM      30.06S VSB 1/4
WISC RAPIDS    FOG       59  57  93 CALM      30.06F VSB 1/4
STEVENS POINT  CLOUDY    55  55  99 CALM      30.06F
WAUPACA        FOG       56  55  97 CALM      30.05F VSB 1/4
SHAWANO        FOG       57  55  95 CALM      30.05F VSB 1/4
CLINTONVILLE   FOG       54  54 100 CALM      30.05F VSB 3/4
WAUTOMA        FOG       58  58 100 CALM      30.06S VSB<1/4
$$

WIZ038-039-048-051-300800-
FOX VALLEY

CITY           SKY/WX    TMP DP  RH WIND       PRES   REMARKS
NWS GREEN BAY  FOG       57  56  96 CALM      30.05F VSB 1/4
APPLETON       PTCLDY    59  59 100 CALM      30.04S FOG
OSHKOSH        FOG       60  58  92 CALM      30.04S VSB 1/4
FOND DU LAC    FOG       59  58  96 CALM      30.05S VSB 1/4
$$

WIZ022-050-052-300800-
EAST CENTRAL WISCONSIN

CITY           SKY/WX    TMP DP  RH WIND       PRES   REMARKS
EPHRAIM        FAIR      57  57  99 CALM      30.03F FOG
STURGEON BAY   CLEAR     57  54  88 SW3       30.06S
MANITOWOC      FOG       55  55 100 MISG      30.05F VSB 1/4
SHEBOYGAN      FOG       57  56  96 CALM      30.04F VSB 1/4
$$

LMZ563-521-522-541>543-300800-
LAKESHORE

STATION/POSITION TIME  TEMP    WIND        PRES    VSBY  WAVE
                       AIR SEA DIR/SP/G                  HT/PER
                 (UTC) (F)     (DEG/KT/KT) (MB)    (MI)  (FT/S)
SHEBOYGAN LKSHOR 0700   58      10/  3/  3 1017.5F
ALGOMA MARINA    0614             CALM       N/A
NORTHPORT PIER   0702   61     240/  2/  8 1016.9S
N MID LAKE BUOY  0650   63 65  210/  8/ 10 1016.8F         1
S GREEN BAY BUOY 0700   62 62  210/  4/  6 1018.6F
SISTER BAY LKSHO 0619   60        CALM       N/A
CHAMBERS ISLAND  0600   61     190/  3/  6 1017.3F
$$


USA.gov is the U.S. government's official web portal to all federal, state and local government web resources and services.